Pagrindinis puslapis
METAR-TAF:

METAR-TAF

Oro uostai :

Elim, Aliaska, Jungtinės Amerikos Valstijos

platuma: 64-36-54N, ilguma: 162-16-14W, Aukštis: 49 m

Dabartinis oras

Ataskaita buvo paskelbta 28 minutes, ne 06:56 UTC
Vėjas 5 kt iš Šiaurės/Šiaurės Vakarų
Temperatūra -19°C
Drėgmė 64%
Slėgis 1016 hPa
Matomumas: 16.1 km
Giedras dangus

METAR: PFEL 280656Z AUTO 34005KT 10SM CLR M19/M24 A3001 RMK AO2 SLP169 T11941239 FZRANO

Laikas: 22:24 (07:24 UTC)


TAF: trūkstamas

Orai ataskaitas ir orų prognozės (METAR, TAF).

turimą stotys yra geltonos ir raudonos taškus žemėlapyje.

Perkelti pele per norėdami pamatyti stoties vardą.

Tada spustelėkite, norėdami matyti oro stebėjimo ir prognozės.

Norėdami pakeisti žemėlapį: spustelėkite ant žalios mygtukų su juodo kryžiaus žemyn,; žalią mygtuką su brūkšneliu, jei norite nutolinti; arba žalių rodyklių gretimoms žemėlapius.


METAR-TAF: